Home   Weather   Weilheim in Oberbayern   Past weeks

Flag for Germany Past Weather in Weilheim in Oberbayern, Bavaria, Germany — Yesterday and Last 2 Weeks

Now
14 °F

Ice fog.


Feels Like: 14 °F
Forecast: 9 / 32 °F
Wind: 1 mph from Northwest

Location: Altenstadt Airport

Current Time: Jan 20, 2017 at 1:10:22 pm

Latest Report: Jan 20, 2017 at 12:20 pm


Visibility: 1 mi

Pressure: 30.36 "Hg (28.23 "Hg at 560m altitude)

Humidity: 85%

Dew Point: 10 °F

Location of Weilheim in OberbayernLocation

Past Weather in Weilheim in Oberbayern — Graph

°F

Weilheim in Oberbayern Temperature Yesterday

Maximum temperature yesterday: 19 °F (at 12:20 am)
Minimum temperature yesterday: 10 °F (at 9:20 pm)
Average temperature yesterday: 16 °F

High & Low Weather Summary for the Past Weeks

 TemperatureHumidityPressure
High37 °F (Jan 12, 10:20 am)100% (Jan 8, 9:20 pm)30.57 "Hg (Jan 8, 9:20 pm)
Low-6 °F (Jan 7, 1:20 am)59% (Jan 13, 1:20 pm)29.39 "Hg (Jan 13, 1:20 am)
Average23 °F87%30.12 "Hg
* Reported Jan 5 11:20 am — Jan 20 11:20 am, Weilheim in Oberbayern, Weather by CustomWeather, © 2017

Note: Actual official high and low records may vary slightly from our data, if they occured in-between our weather recording intervals... More about our weather records

Advertising

Weilheim in Oberbayern Weather History for the Previous 24 Hours

Scroll right to see more
 ConditionsComfort  
Time TempWeatherWind HumidityBarometerVisibility
11:20 am
Fri, Jan 20
12 °FIce fog.1 mph92%30.39 "Hg1 mi
11:01 am12 °FIce fog.1 mph92%30.39 "Hg1 mi
10:40 am12 °FIce fog.1 mph92%30.39 "Hg1 mi
10:20 am12 °FIce fog.1 mph85%30.39 "Hg0 mi
9:20 am10 °FIce fog.3 mph92%30.36 "Hg0 mi
8:20 am12 °FIce fog.2 mph85%30.36 "Hg0 mi
7:20 am12 °FIce fog.2 mph92%30.36 "Hg0 mi
6:20 am12 °FIce fog.1 mph92%30.36 "Hg0 mi
5:20 am12 °FIce fog.1 mph92%30.33 "Hg0 mi
4:20 am12 °FCold.2 mph92%30.33 "HgN/A
3:20 am14 °FCold.2 mph92%30.36 "HgN/A
2:20 am14 °FCold.1 mph92%30.36 "HgN/A
1:20 am12 °FCold.3 mph92%30.36 "HgN/A
12:20 am12 °FCold.1 mph92%30.36 "HgN/A
11:20 pm
Thu, Jan 19
10 °FCold.1 mph92%30.36 "HgN/A
10:20 pm12 °FCold.1 mph92%30.39 "HgN/A
9:20 pm10 °FCold.2 mph92%30.39 "HgN/A
8:20 pm12 °FIce fog.1 mph92%30.39 "Hg2 mi
7:20 pm14 °FIce fog.5 mph92%30.39 "Hg3 mi
6:20 pm16 °FIce fog.3 mph86%30.39 "Hg3 mi
5:20 pm18 °FIce fog.8 mph86%30.36 "Hg3 mi
4:20 pm19 °FPassing clouds.7 mph79%30.36 "Hg4 mi
3:20 pm18 °FScattered clouds.8 mph86%30.36 "Hg4 mi
2:20 pm19 °FPartly sunny.9 mph79%30.36 "Hg4 mi
1:20 pm18 °FPartly sunny.12 mph86%30.36 "Hg4 mi
Weather by CustomWeather, © 2017

See weather overviewHow to use our weather pages